Location: ČR
(50.0000°N, 15.0000°E)
Time: 01:22:31
(UTC+00:00)

ISS - Pass Details

Date: 02 October 2021
Orbit: 417 x 423 km, 51.6° (Epoch: 21 October)

Event Time Altitude Azimuth Distance (km) Brightness Sun altitude
Rises 17:29:07 0° 287° (WNW) 2,365 2.0 -9.4°
Reaches altitude 10° 17:31:14 10° 284° (WNW) 1,500 0.6 -9.7°
Maximum altitude 17:34:34 62° 204° (SSW) 477 -3.4 -10.2°
Enters shadow 17:37:22 14° 124° (SE) 1,291 -1.8 -10.7°
